• In Austria
  • List of Countries
  • For 7 days
  • Water Temperature
  • Satellite Maps
  • Weather Map
  • News
  • Weather Widgets
  • user-avatar
    Login

    Hourly Weather Neuquén

    Today, 17 July, Tuesday

    Time Temperature Precipitation Wind Pressure Humidity
    00:00 +6°C° 0 mm 5 mps 738 mmHg 74%
    01:00 +6°C° 0 mm 5 mps 738 mmHg 77%
    02:00 +6°C° 0 mm 5 mps 738 mmHg 78%
    03:00 +5°C° 0 mm 5 mps 738 mmHg 80%
    04:00 +5°C° 0 mm 4 mps 738 mmHg 82%
    05:00 +5°C° 0 mm 4 mps 738 mmHg 82%
    06:00 +5°C° 0 mm 4 mps 738 mmHg 83%
    07:00 +5°C° 0 mm 4 mps 738 mmHg 84%
    08:00 +5°C° 0 mm 4 mps 739 mmHg 82%
    09:00 +5°C° 0 mm 4 mps 739 mmHg 81%
    10:00 +6°C° 0 mm 4 mps 739 mmHg 79%
    11:00 +6°C° 0 mm 4 mps 739 mmHg 78%
    12:00 +6°C° 0 mm 4 mps 739 mmHg 78%
    13:00 +6°C° 0 mm 4 mps 739 mmHg 77%
    14:00 +6°C° 0 mm 4 mps 739 mmHg 77%
    15:00 +6°C° 0 mm 4 mps 738 mmHg 78%
    16:00 +6°C° 0 mm 4 mps 738 mmHg 78%
    17:00 +6°C° 0 mm 4 mps 739 mmHg 78%
    18:00 +6°C° 0 mm 4 mps 739 mmHg 78%
    19:00 +6°C° 0 mm 4 mps 739 mmHg 79%
    20:00 +6°C° 0 mm 4 mps 740 mmHg 78%
    21:00 +6°C° 0 mm 4 mps 740 mmHg 78%
    22:00 +6°C° 0 mm 4 mps 740 mmHg 78%
    23:00 +5°C° 0.1 mm 4 mps 740 mmHg 78%

    Tomorrow, 18 July, Wednesday

    Time Temperature Precipitation Wind Pressure Humidity
    00:00 +5°C° 0.1 mm 5 mps 740 mmHg 79%
    01:00 +5°C° 0.1 mm 5 mps 739 mmHg 79%
    02:00 +5°C° 0.2 mm 5 mps 739 mmHg 80%
    03:00 +3°C° 0.2 mm 5 mps 739 mmHg 80%
    04:00 +3°C° 0.2 mm 6 mps 739 mmHg 80%
    05:00 +3°C° 0.4 mm 6 mps 739 mmHg 79%
    06:00 +3°C° 0.4 mm 6 mps 739 mmHg 79%
    07:00 +3°C° 0.4 mm 7 mps 739 mmHg 79%
    08:00 +3°C° 0.9 mm 7 mps 740 mmHg 79%
    09:00 +3°C° 0.9 mm 7 mps 740 mmHg 79%
    10:00 +3°C° 0.9 mm 7 mps 740 mmHg 78%
    11:00 +3°C° 1.1 mm 7 mps 740 mmHg 80%
    12:00 +4°C° 1.1 mm 7 mps 739 mmHg 81%
    13:00 +4°C° 1.1 mm 7 mps 739 mmHg 83%
    14:00 +4°C° 0.7 mm 7 mps 739 mmHg 84%
    15:00 +4°C° 0.7 mm 7 mps 739 mmHg 84%
    16:00 +4°C° 0.7 mm 8 mps 739 mmHg 85%
    17:00 +4°C° 0.6 mm 8 mps 739 mmHg 86%
    18:00 +4°C° 0.6 mm 8 mps 739 mmHg 86%
    19:00 +4°C° 0.6 mm 8 mps 739 mmHg 87%
    20:00 +4°C° 0.8 mm 8 mps 740 mmHg 87%
    21:00 +4°C° 0.8 mm 8 mps 740 mmHg 87%
    22:00 +3°C° 0.8 mm 9 mps 740 mmHg 87%
    23:00 +3°C° 0.6 mm 9 mps 740 mmHg 87%

    Day after tomorrow, 19 July, Thursday

    Time Temperature Precipitation Wind Pressure Humidity
    00:00 +3°C° 0.6 mm 9 mps 740 mmHg 86%
    01:00 +3°C° 0.6 mm 10 mps 740 mmHg 86%
    02:00 +3°C° 0.2 mm 10 mps 740 mmHg 85%
    03:00 +3°C° 0.2 mm 10 mps 740 mmHg 85%
    04:00 +3°C° 0.2 mm 10 mps 739 mmHg 84%
    05:00 +3°C° 0.1 mm 10 mps 740 mmHg 83%
    06:00 +3°C° 0.1 mm 10 mps 740 mmHg 82%
    07:00 +3°C° 0.1 mm 10 mps 741 mmHg 81%
    08:00 +3°C° 0.2 mm 11 mps 741 mmHg 80%
    09:00 +3°C° 0.2 mm 11 mps 741 mmHg 79%
    10:00 +3°C° 0.2 mm 11 mps 742 mmHg 77%
    11:00 +5°C° 0.1 mm 10 mps 741 mmHg 75%
    12:00 +5°C° 0.1 mm 10 mps 741 mmHg 73%
    13:00 +5°C° 0.1 mm 10 mps 741 mmHg 71%
    14:00 +5°C° 0 mm 9 mps 741 mmHg 71%
    15:00 +5°C° 0 mm 8 mps 741 mmHg 71%
    16:00 +5°C° 0 mm 7 mps 741 mmHg 71%
    17:00 +5°C° 0 mm 7 mps 741 mmHg 71%
    18:00 +4°C° 0 mm 6 mps 741 mmHg 72%
    19:00 +5°C° 0 mm 5 mps 741 mmHg 72%
    20:00 +5°C° 0 mm 5 mps 741 mmHg 71%
    21:00 +4°C° 0 mm 6 mps 741 mmHg 70%
    22:00 +4°C° 0 mm 6 mps 741 mmHg 69%
    23:00 +3°C° 0 mm 7 mps 741 mmHg 69%

    20 July, Friday

    Time Temperature Precipitation Wind Pressure Humidity
    00:00 +3°C° 0 mm 7 mps 740 mmHg 69%
    01:00 +3°C° 0 mm 7 mps 740 mmHg 69%
    02:00 +3°C° 0 mm 7 mps 740 mmHg 70%
    03:00 +3°C° 0 mm 7 mps 739 mmHg 70%
    04:00 +2°C° 0 mm 7 mps 739 mmHg 70%
    05:00 +2°C° 0 mm 7 mps 739 mmHg 70%
    06:00 +2°C° 0 mm 7 mps 739 mmHg 70%
    07:00 +1°C° 0 mm 8 mps 739 mmHg 69%
    08:00 +4°C° 0 mm 8 mps 739 mmHg 66%
    09:00 +5°C° 0 mm 8 mps 739 mmHg 63%
    10:00 +6°C° 0 mm 9 mps 740 mmHg 59%
    11:00 +7°C° 0 mm 8 mps 739 mmHg 58%
    12:00 +9°C° 0 mm 8 mps 739 mmHg 57%
    13:00 +9°C° 0 mm 8 mps 738 mmHg 56%
    14:00 +9°C° 0 mm 7 mps 738 mmHg 56%
    15:00 +9°C° 0 mm 6 mps 738 mmHg 56%
    16:00 +9°C° 0 mm 5 mps 738 mmHg 57%
    17:00 +8°C° 0 mm 5 mps 738 mmHg 59%
    18:00 +7°C° 0 mm 4 mps 738 mmHg 61%
    19:00 +6°C° 0 mm 4 mps 738 mmHg 63%
    20:00 +6°C° 0 mm 4 mps 738 mmHg 62%
    21:00 +5°C° 0 mm 4 mps 737 mmHg 62%
    22:00 +5°C° 0 mm 4 mps 737 mmHg 61%
    23:00 +5°C° 0 mm 4 mps 737 mmHg 61%

    21 July, Saturday

    Time Temperature Precipitation Wind Pressure Humidity
    00:00 +4°C° 0 mm 4 mps 737 mmHg 62%
    01:00 +4°C° 0 mm 4 mps 736 mmHg 62%
    02:00 +3°C° 0 mm 5 mps 736 mmHg 61%
    03:00 +3°C° 0 mm 5 mps 735 mmHg 60%
    04:00 +3°C° 0 mm 5 mps 735 mmHg 59%
    05:00 +4°C° 0 mm 4 mps 735 mmHg 58%
    06:00 +4°C° 0 mm 4 mps 735 mmHg 58%
    07:00 +4°C° 0 mm 4 mps 735 mmHg 58%
    08:00 +5°C° 0 mm 4 mps 735 mmHg 53%
    09:00 +7°C° 0 mm 4 mps 734 mmHg 47%
    10:00 +8°C° 0 mm 4 mps 734 mmHg 41%
    11:00 +10°C° 0 mm 4 mps 733 mmHg 38%
    12:00 +11°C° 0 mm 4 mps 733 mmHg 35%
    13:00 +12°C° 0 mm 4 mps 732 mmHg 32%
    14:00 +12°C° 0 mm 3 mps 731 mmHg 34%
    15:00 +12°C° 0 mm 2 mps 731 mmHg 36%
    16:00 +12°C° 0 mm 2 mps 730 mmHg 37%
    17:00 +10°C° 0 mm 2 mps 730 mmHg 39%
    18:00 +10°C° 0 mm 2 mps 730 mmHg 41%
    19:00 +9°C° 0 mm 2 mps 730 mmHg 42%
    20:00 +8°C° 0 mm 2 mps 729 mmHg 45%
    21:00 +8°C° 0 mm 2 mps 729 mmHg 47%
    22:00 +8°C° 0 mm 2 mps 729 mmHg 49%
    23:00 +7°C° 0 mm 2 mps 729 mmHg 50%

    22 July, Sunday

    Time Temperature Precipitation Wind Pressure Humidity
    00:00 +7°C° 0 mm 2 mps 729 mmHg 50%
    01:00 +6°C° 0 mm 2 mps 729 mmHg 51%
    02:00 +5°C° 0 mm 3 mps 729 mmHg 51%
    03:00 +5°C° 0 mm 4 mps 730 mmHg 51%
    04:00 +5°C° 0 mm 4 mps 730 mmHg 51%
    05:00 +5°C° 0 mm 4 mps 731 mmHg 57%
    06:00 +5°C° 0 mm 4 mps 732 mmHg 62%
    07:00 +4°C° 0 mm 3 mps 732 mmHg 67%
    08:00 +6°C° 0 mm 4 mps 733 mmHg 61%
    09:00 +8°C° 0 mm 6 mps 734 mmHg 56%
    10:00 +9°C° 0 mm 7 mps 735 mmHg 50%
    11:00 +9°C° 0 mm 8 mps 735 mmHg 44%
    12:00 +10°C° 0 mm 9 mps 735 mmHg 39%
    13:00 +10°C° 0 mm 9 mps 735 mmHg 34%
    14:00 +10°C° 0 mm 9 mps 735 mmHg 35%
    15:00 +9°C° 0 mm 8 mps 736 mmHg 36%
    16:00 +8°C° 0 mm 7 mps 736 mmHg 37%
    17:00 +8°C° 0 mm 7 mps 737 mmHg 43%
    18:00 +6°C° 0 mm 7 mps 738 mmHg 50%
    19:00 +5°C° 0 mm 7 mps 738 mmHg 56%
    20:00 +4°C° 0 mm 7 mps 739 mmHg 61%
    21:00 +4°C° 0 mm 7 mps 740 mmHg 67%
    22:00 +3°C° 0 mm 7 mps 740 mmHg 72%
    23:00 +3°C° 0 mm 6 mps 741 mmHg 71%
    Show more